Location: ČR
(50.0000°N, 15.0000°E)
Time: 15:22:18
(UTC+00:00)

Explorer 7 - Pass Details

Date: 27 October 2021
Orbit: 483 x 675 km, 50.3° (Epoch: 27 November)

Event Time Altitude Azimuth Distance (km) Brightness Sun altitude
Rises 17:44:58 0° 188° (S) 2,584 10.3 -19.7°
Enters shadow 17:46:55 - 173° (S) 2,022 9.6 -20.1°
Reaches altitude 10° 17:48:21 10° 156° (SSE) 1,741 - -20.3°
Maximum altitude 17:49:51 12° 134° (SE) 1,646 - -20.5°
Drops below altitude 10° 17:51:22 10° 112° (ESE) 1,784 - -20.8°
Sets 17:54:57 0° 80° (E) 2,733 - -21.3°
